TITAN 4 CENTAUR R/B

基本信息
目录编号:
22989
目录名称:
TITAN 4 CENTAUR R/B
国际标识:
1994-009B
轨道中心:
EARTH
物体状态:
在轨
发射日期:
1994-02-07 UTC
国别:
美国 (US)
轨道信息
数据来源: 国际轨道数据
星历时间: 2026-07-13T20:07:41+0800
半长轴: 42072.164km
偏心率: 0.001366
轨道倾角: 16.871°
近地点辐角: 239.421°
升交点赤经: 22.453°
平近点角: 120.477°
近地点: 35636.556km
远地点: 35751.498km
周期: 1431.370分钟
每日圈数: 1.006029
详细信息
发射场:
AFETR
轨道高度:
MEO
数据来源:
AOE Integration Group
参考系:
TEME
时间系统:
UTC
历元类型:
SGP4
2D轨道图
3D轨道图
轨道高度分析图
轨道倾角分析图
轨道综合分析图
查看轨道综合分析图